Theta_e
307 316 325 333 339 344 347 349 351 352 353 351 350 349 349 349 349 350 353 353 354 356 356 355 353 353 351 351 351 349 349 348 347 347 346 343 341 342 345 345 345 343 347
307 312 323 324 331 337 339 343 349 350 351 351 351 350 349 349 350 349 352 354 353 354 355 354 353 352 351 350 349 348 348 347 345 343 343 343 342 339 341 344 344 343 346
304 311 313 322 323 328 333 338 343 348 349 350 351 351 350 350 351 350 351 352 353 354 352 354 353 351 350 348 348 348 347 346 343 341 340 332 332 338 337 339 340 343 344
303 311 313 322 321 322 325 331 335 341 347 348 350 350 351 350 351 350 350 352 351 352 353 353 352 351 349 348 348 348 347 345 342 339 334 332 332 337 335 338 343 342 341
301 305 313 320 319 321 321 324 327 333 339 345 347 348 350 351 352 352 352 352 351 351 351 352 352 350 349 348 347 347 346 343 340 337 331 330 331 338 338 344 346 344 347
300 305 310 316 316 318 319 319 323 325 331 337 342 346 348 350 350 351 351 352 351 351 351 351 352 350 348 347 347 347 345 343 339 332 328 327 332 342 344 345 345 345 344
300 303 304 313 314 315 317 317 319 321 324 328 334 340 345 347 349 349 349 350 351 351 350 350 349 348 347 346 346 346 344 340 334 329 325 326 336 346 346 346 345 346 344
300 302 302 308 311 312 313 314 315 317 320 322 327 334 338 343 346 348 348 347 347 348 348 347 347 346 346 346 345 344 340 335 332 326 323 331 342 347 346 345 344 343 343
299 299 300 301 304 307 309 311 313 315 316 320 321 324 331 335 338 344 344 346 346 345 345 346 345 344 345 345 344 340 336 333 329 325 329 334 341 346 346 344 344 342 341
297 297 298 299 300 300 302 309 311 312 313 317 321 320 321 328 332 334 336 340 345 344 343 344 344 342 344 344 340 336 333 331 327 329 333 334 341 344 345 344 343 341 340
295 295 296 297 298 299 301 303 306 308 310 312 315 320 318 325 335 336 332 335 340 341 341 342 342 340 339 338 336 333 330 330 329 331 333 334 342 343 343 342 341 340 339
290 292 294 294 295 298 300 300 302 304 304 306 310 315 320 321 326 332 327 328 334 335 339 340 340 336 333 338 335 331 331 330 330 332 334 335 342 343 343 341 340 339 337
290 291 292 293 294 295 297 299 300 301 301 303 306 309 315 320 325 331 334 331 331 326 335 337 337 337 336 335 335 333 331 328 329 331 332 333 340 343 341 340 339 338 336
288 289 291 292 292 293 295 296 298 300 301 301 303 306 310 314 320 326 331 332 332 333 334 335 336 336 335 334 334 332 332 331 329 329 330 328 336 340 341 341 339 338 336
287 288 289 290 291 293 294 296 297 299 300 300 301 303 308 309 314 321 328 332 333 334 334 333 334 333 332 330 332 331 331 330 329 329 331 324 331 339 340 340 339 336 336
287 287 289 290 291 292 292 293 295 298 300 299 300 302 307 310 310 313 320 330 331 332 325 328 329 328 327 327 329 329 329 329 327 328 329 328 328 334 337 340 338 336 335
286 287 288 289 291 290 290 292 294 297 299 300 302 304 307 309 310 309 313 322 329 330 322 325 327 327 326 326 326 328 327 326 326 327 327 326 325 322 330 336 338 338 335
285 286 287 289 289 289 290 292 294 296 297 298 300 304 307 309 312 311 311 315 327 329 326 322 324 323 322 323 324 325 323 321 322 324 324 326 326 323 320 327 331 334 336
284 285 285 287 288 289 289 291 293 296 296 297 300 304 306 308 311 311 311 313 319 325 327 324 323 323 322 322 322 320 317 315 315 316 316 315 315 314 311 314 318 323 331
283 284 284 286 287 288 289 290 293 294 295 297 298 302 305 307 308 308 310 311 314 320 323 325 323 323 323 321 309 302 301 301 304 306 307 306 305 304 304 305 306 314 326
282 282 283 284 285 287 287 288 290 292 293 294 297 299 302 308 308 305 307 310 311 314 320 322 322 320 313 310 304 302 298 296 294 294 294 295 295 295 294 294 296 300 312
280 281 282 284 285 286 287 287 289 291 292 293 296 299 301 307 308 306 307 310 312 310 313 320 320 319 313 313 310 305 300 299 294 291 292 292 290 291 290 289 289 290 295
278 280 282 283 284 285 286 288 289 291 293 294 298 302 304 303 303 303 303 307 311 312 312 316 319 318 313 313 313 311 301 302 293 290 288 288 288 288 287 287 287 287 289
278 280 281 283 284 285 285 286 285 286 287 292 296 300 302 298 296 296 298 299 303 307 309 310 315 318 316 313 313 314 307 300 298 289 287 285 285 285 284 284 284 284 285
278 279 280 281 283 283 284 284 285 285 288 292 295 298 299 296 295 293 294 296 298 300 302 303 305 308 316 315 314 308 305 299 298 294 287 283 283 282 282 282 282 281 282
277 278 279 279 281 282 282 282 283 284 286 287 292 293 293 293 291 290 290 291 293 295 296 297 298 301 304 313 315 310 303 301 296 293 287 284 282 279 280 281 281 280 280
Wind_Speed
6 10 22 23 24 23 23 21 7 4 5 6 5 5 6 6 4 5 7 6 9 14 15 14 15 17 14 11 14 14 12 11 10 10 10 11 11 12 12 9 10 6 12
4 9 19 23 24 24 23 24 20 7 6 7 7 7 8 8 7 6 6 7 9 11 16 15 15 15 15 13 13 13 12 10 10 10 10 8 9 10 11 10 7 8 11
7 8 11 22 24 25 24 23 23 19 8 8 8 8 9 10 10 10 8 8 9 12 15 16 14 15 14 12 11 11 12 11 10 10 9 5 5 9 10 8 6 9 12
7 6 11 20 23 24 24 23 22 23 18 9 9 10 10 10 11 12 11 10 10 13 15 17 16 16 14 13 12 11 10 10 10 10 5 5 6 10 11 10 5 14 12
7 7 14 21 23 23 24 23 23 21 22 19 11 11 11 13 12 12 11 12 12 14 15 16 16 14 15 14 13 11 10 9 9 7 5 4 4 9 12 10 8 15 11
6 8 15 20 21 22 22 22 21 21 20 20 19 13 13 13 13 12 12 14 13 14 17 17 16 14 14 14 13 13 12 10 9 6 3 6 7 12 12 9 8 16 15
7 9 12 21 20 21 22 21 21 21 20 20 18 18 13 14 13 14 14 14 15 15 16 16 17 16 15 14 14 13 12 11 6 6 4 5 8 14 11 14 14 17 18
10 11 12 15 20 21 21 21 19 20 19 19 19 19 16 14 14 14 15 16 17 17 17 17 17 17 16 15 15 14 12 10 7 5 4 5 11 15 16 16 16 15 16
10 11 10 9 13 17 20 21 19 21 20 19 17 17 18 15 13 13 14 16 18 19 17 17 17 17 17 15 15 13 12 11 6 3 4 5 12 17 19 19 17 16 15
8 8 9 9 9 9 9 16 21 20 20 19 16 14 15 17 13 11 11 13 18 19 14 15 18 19 17 16 15 13 12 12 5 5 3 4 15 17 20 18 18 17 16
8 8 7 9 10 9 10 11 15 19 17 18 13 11 10 8 9 8 10 11 12 16 21 19 16 18 16 14 14 13 11 3 5 4 3 9 15 18 18 16 17 17 17
11 7 7 9 10 10 9 8 8 9 8 8 9 9 6 6 7 9 8 10 12 13 19 23 20 16 13 8 7 10 4 5 4 4 3 11 16 19 18 17 17 17 16
5 7 9 10 9 9 9 8 4 5 5 7 10 9 8 6 5 5 4 3 4 7 6 11 13 10 11 9 7 6 6 5 3 3 5 11 16 18 19 18 18 17 16
7 6 9 8 10 10 7 7 6 5 6 6 9 12 7 4 4 5 4 4 5 4 6 8 7 9 11 8 7 6 7 6 3 3 4 11 11 15 19 17 16 16 16
7 8 7 7 8 10 10 7 8 8 6 7 8 11 9 7 6 4 5 6 5 5 5 6 7 7 9 8 9 7 7 6 6 3 3 12 12 14 17 17 16 16 15
6 7 10 10 8 8 10 11 8 8 9 7 6 8 12 9 5 5 4 5 3 6 6 7 8 7 6 4 5 5 6 4 5 5 4 7 12 13 15 15 16 16 16
5 8 10 12 11 9 12 10 9 8 9 8 8 10 13 11 8 5 4 4 2 4 8 6 7 8 8 8 5 5 1 1 2 2 1 2 4 8 6 6 9 15 16
4 7 9 11 11 9 10 9 9 8 8 9 9 10 12 12 11 6 4 4 3 5 5 7 9 9 8 9 7 4 3 4 4 5 5 3 4 3 6 5 6 5 10
4 5 7 9 11 9 10 10 11 11 9 9 10 10 11 12 10 6 3 5 4 3 5 5 7 8 9 7 6 5 7 4 4 5 6 5 5 4 3 6 4 3 9
5 5 7 8 11 11 8 9 8 9 9 8 8 9 13 9 11 6 4 5 3 3 3 6 9 6 8 7 7 7 6 6 6 5 6 5 5 6 4 4 4 3 9
5 6 8 10 10 9 8 8 8 7 10 9 9 12 13 10 8 7 5 5 4 4 5 6 5 7 4 6 7 5 6 7 8 7 6 6 7 7 9 9 6 6 4
4 5 7 9 11 9 8 7 8 8 10 10 11 13 13 11 6 5 4 4 3 2 4 5 5 5 4 8 4 4 3 1 5 6 5 6 8 5 7 9 9 9 8
5 5 9 9 10 10 10 8 8 9 9 9 8 7 2 6 8 6 5 4 2 2 2 3 5 7 6 7 7 4 4 3 4 3 7 6 6 4 5 7 8 8 9
5 5 6 9 10 9 11 9 12 9 10 9 8 8 1 5 7 8 7 6 6 3 1 1 3 3 5 8 3 3 4 6 5 3 2 3 5 6 5 6 5 7 9
6 5 6 9 8 9 10 10 9 10 8 9 7 10 6 6 8 9 8 8 7 4 5 3 3 4 3 7 7 3 3 2 4 5 4 2 2 4 5 4 5 4 7
5 5 7 8 8 8 8 9 11 10 10 9 7 3 4 4 5 9 8 6 6 4 5 4 3 3 3 3 7 5 5 5 4 5 4 3 2 2 2 2 4 3 5
Wind_Direction
1 28 20 14 13 11 12 8 310 209 184 184 183 180 173 150 142 117 115 139 142 143 148 149 151 141 139 134 129 131 118 115 111 103 102 113 121 126 132 129 105 101 92
24 31 26 20 16 15 15 11 6 269 215 204 198 191 187 173 169 158 150 148 152 155 149 150 155 143 137 131 129 127 124 121 116 113 115 116 127 138 147 147 113 130 127
48 37 30 22 18 17 15 12 10 6 276 234 218 199 204 189 182 179 178 159 159 163 163 156 159 151 139 132 131 131 131 132 132 134 130 125 133 153 157 153 152 161 149
27 63 36 25 17 16 15 13 10 8 3 280 248 225 208 205 198 189 186 168 171 169 168 162 165 157 145 141 140 138 140 141 145 154 149 157 163 163 162 162 172 172 167
21 40 31 26 16 14 12 10 10 6 3 359 302 246 229 213 210 191 191 183 181 175 177 169 167 160 152 151 150 147 149 153 164 173 188 170 179 170 169 177 197 165 147
28 48 33 24 15 9 8 6 6 4 0 354 356 309 244 230 219 204 197 192 186 186 183 180 171 164 157 157 161 158 158 165 175 206 197 225 193 182 178 176 155 189 153
22 34 31 22 15 8 3 360 0 359 359 353 351 342 308 247 230 216 210 200 191 189 190 187 180 168 164 165 168 166 164 173 179 215 201 255 166 171 192 157 148 132 144
34 27 19 12 14 7 359 354 355 353 352 351 351 346 331 327 247 232 217 213 201 199 195 195 191 169 170 173 171 167 170 182 194 200 213 231 164 146 154 157 145 134 130
34 27 9 12 9 1 353 348 352 349 345 343 339 340 335 313 309 245 230 221 213 205 200 193 193 175 175 179 171 169 175 189 198 193 251 190 161 155 155 152 141 133 124
27 19 1 10 0 355 346 334 348 344 338 335 327 323 329 312 285 269 225 228 226 214 202 204 201 182 174 177 173 174 182 196 171 208 241 191 156 166 157 156 144 143 142
19 1 10 2 357 349 343 344 336 334 335 331 327 309 315 318 309 286 240 216 220 216 198 209 207 196 180 176 174 178 180 182 172 208 212 194 165 167 164 153 149 149 150
351 354 10 2 351 343 335 333 326 324 323 319 313 312 298 294 301 299 274 240 214 210 202 202 201 189 175 180 183 177 188 164 183 195 192 195 170 165 161 159 159 157 157
354 357 353 350 347 340 328 328 318 317 316 318 314 309 306 289 287 293 281 241 226 214 203 209 197 192 197 174 173 179 178 169 191 188 181 199 166 167 161 166 167 166 162
355 356 346 344 335 333 323 312 306 310 314 314 314 309 302 297 286 285 278 245 220 195 204 197 189 190 196 177 152 190 196 159 181 190 170 183 169 173 169 171 175 181 182
2 338 331 328 327 324 324 327 321 315 299 291 303 299 299 293 283 285 272 271 208 175 160 156 172 172 166 140 161 190 213 169 171 172 160 176 171 175 178 180 184 187 191
353 337 329 332 315 332 327 320 313 314 310 294 286 286 287 282 273 282 285 261 232 162 137 135 139 137 133 132 145 210 203 197 164 169 167 183 177 180 179 187 189 193 196
346 333 337 322 323 331 312 309 304 295 304 302 299 293 279 277 271 269 278 282 166 207 138 136 143 143 152 169 174 165 195 193 95 207 192 98 88 57 116 163 200 197 201
346 334 324 319 309 302 300 302 308 294 300 295 291 288 280 272 266 253 267 266 207 184 143 163 149 157 167 168 165 152 91 80 106 104 88 120 139 124 66 97 187 197 219
331 332 321 318 307 303 307 300 293 294 287 291 288 279 270 260 263 252 240 248 263 135 157 155 177 172 171 166 156 133 109 74 76 100 96 86 75 85 70 40 65 197 221
351 329 312 314 312 310 311 300 294 284 285 295 293 294 273 246 246 262 244 254 222 151 168 161 181 189 159 131 99 66 39 59 35 44 56 56 56 44 30 54 357 352 168
356 335 330 317 315 315 307 303 301 299 297 296 292 288 292 250 228 228 238 253 259 174 146 181 159 169 86 119 107 80 57 54 56 40 39 29 44 41 51 21 358 353 2
325 311 321 319 311 308 306 311 299 301 290 286 288 282 275 257 228 231 253 234 223 210 160 163 170 171 94 175 153 132 140 141 64 33 42 45 33 23 50 50 24 14 17
326 316 332 317 312 312 317 308 311 303 286 279 273 290 344 55 68 42 9 337 77 332 156 148 163 205 131 199 164 152 146 154 114 18 42 28 52 29 52 54 42 24 33
318 336 318 317 314 321 323 318 309 292 293 288 289 287 114 51 63 55 7 355 323 32 347 17 59 205 142 177 146 215 42 144 150 136 65 38 35 49 30 56 38 26 29
343 350 332 320 325 330 330 317 306 298 294 293 285 276 60 56 47 44 16 360 338 5 335 357 329 4 206 173 185 139 102 352 83 125 158 143 70 26 38 47 69 49 40
343 343 330 319 324 327 321 312 307 304 300 295 295 285 33 35 45 31 9 358 323 359 351 327 347 21 342 235 195 163 164 175 156 164 120 120 126 66 41 44 66 66 56